Weather History for Kahului, HI

Change the Weather History Date:

Monday, November 25, 2013

  Actual Average Record
Temperature  
Mean Temperature 71 °F 75 °F  
Max Temperature 82 °F 83 °F 90 °F (1956)
Min Temperature 60 °F 67 °F 60 °F (1972)
Degree Days  
Heating Degree Days 0 0  
Month to date heating degree days 0 0  
Since 1 July heating degree days 0 0  
Cooling Degree Days 6 10  
Month to date cooling degree days 272 281  
Year to date cooling degree days 3925 3657  
Growing Degree Days 21 (Base 50)    
Moisture  
Dew Point 62 °F    
Average Humidity 67    
Maximum Humidity 79    
Minimum Humidity 54    
Precipitation  
Precipitation T in 0.09 in 0.48 in (1997)
Month to date precipitation 4.64 1.72  
Year to date precipitation 13.59 14.00  
Snow  
Snow 0.00 in - - ()
Month to date snowfall 0.0  
Since 1 July snowfall 0.0  
Since 1 September snowfall 0.0  
Snow Depth 0.00 in    
Sea Level Pressure  
Sea Level Pressure 30.02 in    
Wind  
Wind Speed 12 mph (ENE)    
Max Wind Speed 23 mph    
Max Gust Speed 30 mph    
Visibility 10 miles    
Events      
T = Trace of Precipitation, MM = Missing Value Source: NWS Daily Summary

Daily Weather History Graph

Daily Weather History Graph

Search for Another Location

Airport:

Trip Planner

Search our weather history database for the weather conditions in past years. The results will help you decide how hot, cold, wet, or windy it might be!

Date:

Astronomy

Nov. 25, 2013 Rise Set
Actual Time 6:42 AM HST 5:43 PM HST
Civil Twilight 6:18 AM HST 6:06 PM HST
Nautical Twilight 5:51 AM HST 6:34 PM HST
Astronomical Twilight 5:24 AM HST 7:00 PM HST
Moon No Moon Rise 12:35 PM HST (11/25)
Length of Visible Light 11h 48m
Length of Day
11h 00m
Waning Gibbous, 49% of the Moon is Illuminated
Nov 25
Waning Gibbous
Dec 2
New
Dec 9
First Quarter
Dec 16
Full
Dec 25
Last Quarter

Hourly Weather History & Observations

Time (HST) Temp. Heat Index Dew Point Humidity Pressure Visibility Wind Dir Wind Speed Gust Speed Precip Events Conditions
12:54 AM 72.0 °F - 63.0 °F 73% 29.99 in 10.0 mi ENE 13.8 mph - 0.00 in   Mostly Cloudy
1:54 AM 72.0 °F - 62.1 °F 71% 29.98 in 10.0 mi NE 9.2 mph - N/A   Partly Cloudy
2:54 AM 66.0 °F - 57.9 °F 75% 29.97 in 10.0 mi ESE 3.5 mph - N/A   Clear
3:54 AM 64.9 °F - 55.9 °F 73% 29.98 in 10.0 mi Calm Calm - N/A   Clear
4:54 AM 64.0 °F - 55.0 °F 73% 30.00 in 10.0 mi Calm Calm - N/A   Clear
5:54 AM 62.1 °F - 55.9 °F 80% 30.01 in 10.0 mi ESE 3.5 mph - N/A   Clear
6:54 AM 66.0 °F - 57.9 °F 75% 30.03 in 10.0 mi Calm Calm - N/A   Scattered Clouds
7:54 AM 73.9 °F - 63.0 °F 68% 30.04 in 10.0 mi NE 8.1 mph - N/A   Scattered Clouds
8:54 AM 78.1 °F - 63.0 °F 60% 30.05 in 10.0 mi NE 13.8 mph - N/A   Partly Cloudy
9:54 AM 80.1 °F 81.5 °F 63.0 °F 56% 30.06 in 10.0 mi NE 11.5 mph 23.0 mph N/A   Partly Cloudy
10:54 AM 81.0 °F 81.9 °F 62.1 °F 52% 30.04 in 10.0 mi ENE 17.3 mph 24.2 mph N/A   Partly Cloudy
11:54 AM 81.0 °F 82.2 °F 63.0 °F 54% 30.02 in 10.0 mi ENE 18.4 mph 23.0 mph N/A   Clear
12:54 PM 81.0 °F 82.2 °F 63.0 °F 54% 30.00 in 10.0 mi ENE 16.1 mph 21.9 mph N/A   Scattered Clouds
1:54 PM 81.0 °F 82.5 °F 64.0 °F 56% 29.98 in 10.0 mi NE 16.1 mph 24.2 mph N/A   Scattered Clouds
2:54 PM 80.1 °F 81.5 °F 63.0 °F 56% 29.98 in 10.0 mi ENE 18.4 mph 24.2 mph N/A   Partly Cloudy
3:54 PM 79.0 °F - 63.0 °F 58% 29.98 in 10.0 mi ENE 19.6 mph 27.6 mph N/A   Partly Cloudy
4:54 PM 77.0 °F - 64.0 °F 64% 29.99 in 10.0 mi ENE 16.1 mph 24.2 mph N/A   Partly Cloudy
5:54 PM 75.0 °F - 64.0 °F 69% 30.01 in 10.0 mi NE 16.1 mph 24.2 mph N/A   Partly Cloudy
6:54 PM 75.0 °F - 64.0 °F 69% 30.04 in 10.0 mi NE 16.1 mph - N/A   Partly Cloudy
7:54 PM 75.0 °F - 63.0 °F 66% 30.07 in 10.0 mi NE 11.5 mph - N/A   Clear
8:54 PM 75.0 °F - 64.9 °F 71% 30.08 in 10.0 mi NE 15.0 mph - N/A   Clear
9:54 PM 75.0 °F - 64.9 °F 71% 30.09 in 10.0 mi NE 16.1 mph - N/A   Scattered Clouds
10:54 PM 75.0 °F - 64.9 °F 71% 30.09 in 10.0 mi NE 12.7 mph - N/A   Scattered Clouds
11:54 PM 73.9 °F - 64.0 °F 71% 30.09 in 10.0 mi NE 13.8 mph - N/A   Clear